Weather History for KGUC - September, 2012

Change the Weather History Date:

Tuesday, September 4, 2012

  Actual Average Record
Temperature  
Mean Temperature 58 °F -  
Max Temperature 78 °F 70 °F 82 °F (1998)
Min Temperature 37 °F 38 °F 32 °F (2008)
Degree Days  
Heating Degree Days 8    
Growing Degree Days 8 (Base 50)    
Moisture  
Dew Point 32 °F    
Average Humidity 41    
Maximum Humidity 75    
Minimum Humidity 18    
Precipitation  
Precipitation 0.00 in - - ()
Sea Level Pressure  
Sea Level Pressure 30.39 in    
Wind  
Wind Speed 3 mph (WNW)    
Max Wind Speed 17 mph    
Max Gust Speed 24 mph    
Visibility 10 miles    
Events      
Averages and records for this station are not official NWS values.
T = Trace of Precipitation, MM = Missing Value Source: NWS Daily Summary

Daily Weather History Graph

Daily Weather History Graph

Search for Another Location

Airport or City:

Trip Planner

Search our weather history database for the weather conditions in past years. The results will help you decide how hot, cold, wet, or windy it might be!

Date:

Astronomy

Sep. 04, 2012 Rise Set
Actual Time 6:40 AM MDT 7:32 PM MDT
Civil Twilight 6:13 AM MDT 7:59 PM MDT
Nautical Twilight 5:41 AM MDT 8:31 PM MDT
Astronomical Twilight 5:08 AM MDT 9:04 PM MDT
Moon 9:31 PM MDT (9/4) 10:45 AM MDT (9/4)
Length of Visible Light 13h 46m
Length of Day
12h 52m
Waning Gibbous, 83% of the Moon is Illuminated
Sep 4
Waning Gibbous
Sep 8
Last Quarter
Sep 15
New
Sep 22
First Quarter
Sep 29
Full

Hourly Weather History & Observations

Time (MDT) Temp. Windchill Dew Point Humidity Pressure Visibility Wind Dir Wind Speed Gust Speed Precip Events Conditions
12:15 AM 51.8 °F - 32.0 °F 47% 30.42 in 10.0 mi Calm Calm - N/A   Clear
12:35 AM 48.2 °F - 33.8 °F 58% 30.42 in 10.0 mi Calm Calm - N/A   Clear
12:55 AM 48.2 °F - 33.8 °F 58% 30.42 in 10.0 mi Calm Calm - N/A   Clear
1:15 AM 46.4 °F - 33.8 °F 62% 30.42 in 10.0 mi Calm Calm - N/A   Clear
1:35 AM 48.2 °F - 32.0 °F 54% 30.42 in 10.0 mi Calm Calm - N/A   Clear
1:55 AM 46.4 °F - 33.8 °F 62% 30.43 in 10.0 mi Calm Calm - N/A   Clear
2:15 AM 46.4 °F 44.3 °F 30.2 °F 53% 30.43 in 10.0 mi North 4.6 mph - N/A   Clear
2:55 AM 44.6 °F - 30.2 °F 57% 30.43 in 10.0 mi Calm Calm - N/A   Clear
3:15 AM 44.6 °F - 30.2 °F 57% 30.43 in 10.0 mi Calm Calm - N/A   Clear
3:55 AM 42.8 °F - 30.2 °F 61% 30.44 in 10.0 mi Calm Calm - N/A   Clear
4:15 AM 42.8 °F - 32.0 °F 66% 30.43 in 10.0 mi Calm Calm - N/A   Clear
4:35 AM 42.8 °F - 30.2 °F 61% 30.44 in 10.0 mi Calm Calm - N/A   Clear
4:55 AM 41.0 °F - 30.2 °F 65% 30.44 in 10.0 mi Calm Calm - N/A   Clear
5:15 AM 39.2 °F - 30.2 °F 70% 30.45 in 10.0 mi Calm Calm - N/A   Clear
5:35 AM 39.2 °F - 30.2 °F 70% 30.45 in 10.0 mi Calm Calm - N/A   Clear
6:15 AM 37.4 °F 34.9 °F 30.2 °F 75% 30.46 in 10.0 mi SE 3.5 mph - N/A   Clear
6:35 AM 37.4 °F 33.8 °F 30.2 °F 75% 30.47 in 10.0 mi NNW 4.6 mph - N/A   Clear
6:55 AM 37.4 °F 33.8 °F 28.4 °F 70% 30.47 in 10.0 mi North 4.6 mph - N/A   Clear
7:15 AM 39.2 °F - 30.2 °F 70% 30.48 in 10.0 mi Calm Calm - N/A   Clear
7:35 AM 39.2 °F - 30.2 °F 70% 30.48 in 10.0 mi Calm Calm - N/A   Clear
7:55 AM 42.8 °F - 33.8 °F 70% 30.48 in 10.0 mi Calm Calm - N/A   Clear
8:15 AM 44.6 °F - 33.8 °F 66% 30.47 in 10.0 mi Calm Calm - N/A   Clear
8:35 AM 46.4 °F - 33.8 °F 62% 30.47 in 10.0 mi Calm Calm - N/A   Clear
8:55 AM 48.2 °F - 35.6 °F 62% 30.47 in 10.0 mi Calm Calm - N/A   Clear
9:15 AM 50.0 °F - 35.6 °F 58% 30.47 in 10.0 mi Calm Calm - N/A   Clear
9:35 AM 53.6 °F - 33.8 °F 47% 30.47 in 10.0 mi Calm Calm - N/A   Clear
9:55 AM 53.6 °F - 33.8 °F 47% 30.47 in 10.0 mi Calm Calm - N/A   Clear
10:15 AM 55.4 °F - 32.0 °F 41% 30.46 in 10.0 mi Calm Calm - N/A   Clear
10:55 AM 60.8 °F - 30.2 °F 31% 30.45 in 10.0 mi Calm Calm - N/A   Partly Cloudy
11:15 AM 62.6 °F - 33.8 °F 34% 30.44 in 10.0 mi NW 4.6 mph - N/A   Partly Cloudy
11:35 AM 64.4 °F - 35.6 °F 34% 30.43 in 10.0 mi Calm Calm - N/A   Clear
11:55 AM 66.2 °F - 35.6 °F 32% 30.42 in 10.0 mi Calm Calm - N/A   Partly Cloudy
12:15 PM 69.8 °F - 35.6 °F 28% 30.40 in 10.0 mi Calm Calm - N/A   Clear
12:35 PM 71.6 °F - 37.4 °F 29% 30.39 in 10.0 mi Calm Calm - N/A   Scattered Clouds
12:55 PM 75.2 °F - 37.4 °F 25% 30.38 in 10.0 mi SW 12.7 mph 17.3 mph N/A   Mostly Cloudy
1:15 PM 75.2 °F - 35.6 °F 24% 30.37 in 10.0 mi WSW 11.5 mph 20.7 mph N/A   Partly Cloudy
1:35 PM 75.2 °F - 33.8 °F 22% 30.36 in 10.0 mi West 10.4 mph 24.2 mph N/A   Partly Cloudy
1:55 PM 75.2 °F - 33.8 °F 22% 30.36 in 10.0 mi WSW 12.7 mph 23.0 mph N/A   Mostly Cloudy
2:15 PM 75.2 °F - 33.8 °F 22% 30.35 in 10.0 mi WSW 9.2 mph 20.7 mph N/A   Mostly Cloudy
2:35 PM 77.0 °F - 32.0 °F 19% 30.34 in 10.0 mi SW 11.5 mph 20.7 mph N/A   Mostly Cloudy
2:55 PM 78.8 °F - 33.8 °F 20% 30.33 in 10.0 mi SW 15.0 mph 21.9 mph N/A   Mostly Cloudy
3:15 PM 78.8 °F - 33.8 °F 20% 30.33 in 10.0 mi SW 15.0 mph 21.9 mph N/A   Mostly Cloudy
3:35 PM 75.2 °F - 33.8 °F 22% 30.33 in 10.0 mi WSW 11.5 mph 24.2 mph N/A   Mostly Cloudy
3:55 PM 75.2 °F - 33.8 °F 22% 30.32 in 10.0 mi NW 16.1 mph 24.2 mph N/A   Scattered Clouds
4:15 PM 77.0 °F - 35.6 °F 22% 30.32 in 10.0 mi WSW 13.8 mph 20.7 mph N/A   Scattered Clouds
4:35 PM 77.0 °F - 33.8 °F 21% 30.31 in 10.0 mi West 13.8 mph 19.6 mph N/A   Partly Cloudy
4:55 PM 77.0 °F - 33.8 °F 21% 30.31 in 10.0 mi WSW 11.5 mph - N/A   Scattered Clouds
5:15 PM 77.0 °F - 33.8 °F 21% 30.31 in 10.0 mi West 11.5 mph 23.0 mph N/A   Mostly Cloudy
5:35 PM 77.0 °F - 32.0 °F 19% 30.31 in 10.0 mi West 17.3 mph 20.7 mph N/A   Scattered Clouds
5:55 PM 75.2 °F - 30.2 °F 19% 30.31 in 10.0 mi WNW 16.1 mph 19.6 mph N/A   Partly Cloudy
6:15 PM 75.2 °F - 30.2 °F 19% 30.31 in 10.0 mi WNW 15.0 mph 20.7 mph N/A   Clear
6:35 PM 75.2 °F - 28.4 °F 18% 30.31 in 10.0 mi West 12.7 mph - N/A   Clear
6:55 PM 73.4 °F - 28.4 °F 19% 30.31 in 10.0 mi WNW 9.2 mph - N/A   Clear
7:15 PM 73.4 °F - 28.4 °F 19% 30.31 in 10.0 mi WNW 6.9 mph - N/A   Clear
7:35 PM 71.6 °F - 28.4 °F 20% 30.31 in 10.0 mi NW 6.9 mph - N/A   Clear
7:55 PM 68.0 °F - 28.4 °F 23% 30.32 in 10.0 mi NNW 8.1 mph - N/A   Clear
8:15 PM 66.2 °F - 28.4 °F 24% 30.32 in 10.0 mi NNW 9.2 mph - N/A   Clear
8:35 PM 64.4 °F - 28.4 °F 26% 30.33 in 10.0 mi North 6.9 mph - N/A   Clear
9:15 PM 62.6 °F - 26.6 °F 26% 30.35 in 10.0 mi NNW 5.8 mph - N/A   Clear
9:35 PM 60.8 °F - 30.2 °F 31% 30.36 in 10.0 mi NNE 3.5 mph - N/A   Clear
9:55 PM 59.0 °F - 30.2 °F 34% 30.36 in 10.0 mi Calm Calm - N/A   Clear
10:15 PM 57.2 °F - 30.2 °F 36% 30.36 in 10.0 mi Calm Calm - N/A   Clear
10:35 PM 55.4 °F - 32.0 °F 41% 30.36 in 10.0 mi North 6.9 mph - N/A   Clear
10:55 PM 55.4 °F - 30.2 °F 38% 30.37 in 10.0 mi NNW 6.9 mph - N/A   Clear
11:15 PM 55.4 °F - 28.4 °F 36% 30.37 in 10.0 mi North 4.6 mph - N/A   Clear
11:35 PM 53.6 °F - 28.4 °F 38% 30.37 in 10.0 mi Calm Calm - N/A   Clear